Regional Weather Roundup
Issued by NWS

Home | Current Version | Previous Version | Graphics & Text | Print | Product List | Glossary On
Versions: 1 2 3 4 5 6 7 8 9 10 11 12 13 14 15 16 17 18 19 20 21 22 23 24 25 26 27 28 29 30 31 32 33 34 35 36 37 38 39 40 41 42 43 44 45 46 47 48 49 50
000
ASUS43 KLOT 070702
RWRIL

ILLINOIS REGIONAL WEATHER ROUNDUP
NATIONAL WEATHER SERVICE CHICAGO/ROMEOVILLE IL
200 AM CDT THU MAY 07 2015

NOTE: "FAIR" INDICATES FEW OR NO CLOUDS BELOW 12,000 FEET WITH NO
SIGNIFICANT WEATHER AND/OR OBSTRUCTIONS TO VISIBILITY.

* THESE STATIONS ARE NOT UNDER NWS QUALITY CONTROL. THEY ALSO MAY NOT
  REPORT WEATHER SUCH AS PRECIPITATION OR FOG.

ILZ001-002-007-009-015-016-024-070800-
NORTHWEST ILLINOIS

CITY           SKY/WX    TMP DP  RH WIND       PRES   REMARKS
MOLINE         CLEAR     66  54  65 S8        29.97F
STERLING*      CLEAR     64  54  68 SE8       30.01F
$$

ILZ003-004-008-010-011-017-018-070800-
NORTH CENTRAL ILLINOIS

CITY           SKY/WX    TMP DP  RH WIND       PRES   REMARKS
ROCKFORD       PTCLDY    61  55  81 SE5       30.04F HAZE
$$

ILZ005-006-012>014-019>023-070800-
NORTHEAST ILLINOIS

CITY           SKY/WX    TMP DP  RH WIND       PRES   REMARKS
CHICAGO-OHARE  PTCLDY    55  50  83 E3        30.06F
CHICAGO-MIDWAY PTCLDY    58  51  78 E6        30.06F
AURORA         PTCLDY    62  54  74 SE5       30.05F HAZE
WAUKEGAN       CLEAR     46  45  96 CALM      30.06F
DUPAGE AIRPORT PTCLDY    57  54  89 CALM      30.05F
WHEELING       PTCLDY    50  46  86 E3        30.08F
NORTHERLY ISL    N/A     49  47  93 CALM        N/A
$$

LMZ740>746-070800-
SOUTHERN LAKE MICHIGAN

STATION/POSITION SKY/WX   TEMP    WIND        PRES    VSBY  WAVE
                          AIR SEA DIR/SP/G                  HT/PER
                          (F)     (DEG/KT/KT) (MB)    (MI)  (FT/S)
HARRISON CRIB              49      50/  5/  6   N/A
BURNHAM HARBOR             49      CALM  /  3   N/A
CALUMET HARBOR             48     330/  1/  3   N/A
BURNS HARBOR               71     140/ 12/ 16 1019.3
MICHIGAN CITY              69     120/ 11/ 13   N/A
MICHIGAN CITY 6N           63 53  160/ 10/ 12   N/A           1
ST. JOSEPH                 62 52  160/ 10/ 12   N/A           1
$$

ILZ025>027-034>036-040-047-049-050-058-095>099-070800-
WEST-CENTRAL ILLINOIS

CITY           SKY/WX    TMP DP  RH WIND       PRES   REMARKS
QUINCY         CLEAR     65  52  62 SE7       29.98S
$$

ILZ028>032-037-038-041>044-048-051>054-059>061-070800-
CENTRAL ILLINOIS

CITY           SKY/WX    TMP DP  RH WIND       PRES   REMARKS
DECATUR        CLEAR     66  54  65 S6        30.06F
PEORIA         CLEAR     71  54  54 S8        30.02F
SPRINGFIELD    CLEAR     71  55  56 S12       30.03F
TAYLORVILLE    NOT AVBL
$$

ILZ033-039-045-046-055>057-062-063-070800-
EAST-CENTRAL ILLINOIS

CITY           SKY/WX    TMP DP  RH WIND       PRES   REMARKS
CHAMPAIGN      CLEAR     66  53  63 SE7       30.07S
MATTOON        CLEAR     65  55  70 S5        30.06F
$$

ILZ079-100>102-070800-
SOUTHWEST ILLINOIS

CITY           SKY/WX    TMP DP  RH WIND       PRES   REMARKS
CAHOKIA*       PTCLDY    66  55  67 S6        30.03S
$$

ILZ064>066-069>071-074>076-080>082-084>086-088>090-092>094-070800-
SOUTH-CENTRAL ILLINOIS

CITY           SKY/WX    TMP DP  RH WIND       PRES   REMARKS
CARBONDALE     CLEAR     59  55  87 CALM      30.05F
MT. VERNON     CLEAR    N/A N/A N/A CALM      30.06F
$$

ILZ067-068-072-073-078-083-087-091-070800-
SOUTHEAST ILLINOIS

CITY           SKY/WX    TMP DP  RH WIND       PRES   REMARKS
LAWRENCEVILLE  MOCLDY    65  59  81 CALM      30.08S
$$

ABBREVIATIONS USED IN REMARKS
   TC - TEMPERATURE IN CELSIUS
  WCI - WIND CHILL INDEX
   HX - HEAT INDEX
  VSB - VISIBILITY
$$



USA.gov is the U.S. government's official web portal to all federal, state and local government web resources and services.